Weather in Petrivske

Ukraine / Luhansk Region     49°20′06″N   39°08′17″E
temp.,
°C
wind,
m/s
gust,
m/s
humid.,
%
clouds,
%
prec.,
mm/h
press.,
hPa
HPBL,
m
23 october, sat
sat2300:00+12sw4107495 0.0 1015175
03:00+11sw487599 0.0 1014142
06:00+9wsw347754 0.0 101555
09:00+13sw476197 0.0 1015249
12:00+16sw71048100 0.0 1015835
15:00+12sw6983100 0.7 1015407
18:00+11sw41080100 1.9 1016313
21:00+11sw497787 1.9 1017287
24 october, sun
sun2400:00+8nw49585 0.0 1018183
03:00+6nw376652 0.0 1019145
06:00+4wnw3768100 0.0 1020149
09:00+6nw475895 0.0 1021362
12:00+9wnw5749100 0.0 10211187
15:00+9wnw5644100 0.0 10191593
18:00+8wnw3747100 0.0 1020224
21:00+5wnw410566 0.0 1020282
25 october, mon
mon2500:00+4nw71082100 0.0 1021653
03:00+4nnw6107236 0.1 1022961
06:00+1nw612796 0.0 1024547
09:00+2nnw7107023 0.0 1026787
12:00+5nnw785090 0.0 10271369
15:00+6n784265 0.0 10281476
18:00+3nnw48495 0.0 1031226
21:00+1nnw36525 0.0 1032123
26 october, tue
tue2600:000n33550 0.0 103350
03:00−1n22580 0.0 103426
06:00−2n22610 0.0 103412
09:00+1n11490 0.0 1035161
12:00+6ssw11345 0.0 1034658
15:00+7sw22275 0.0 1032795
18:00+4ssw22355 0.0 103210
21:00+3ssw22390 0.0 103217
27 october, wed
wed2700:00+2ssw33424 0.0 103224
03:00+1s33455 0.0 103124
06:000s33470 0.0 103026
09:00+3s354062 0.0 1030183
12:00+8ssw342719 0.0 1028620
15:00+10s342346 0.0 1026755
18:00+6s3333100 0.0 102520
21:00+5s3435100 0.0 102461